Lid_Strength_Index
2 2 1 1 0 0 0 0 0 -0 -0 -0 0 0 1 0 -0 -1 -1 -1 -1 -1 -1 -0 -0 -1 -0 -0 -1 -0 0 1 0 1 1 1 0 -0 -0 -1 -0 -0 0
3 2 1 1 1 1 0 0 0 0 0 0 0 0 0 -0 -0 -1 -1 -0 0 0 1 0 1 -0 1 -0 -0 -0 1 1 0 2 2 4 2 1 0 -0 -0 -0 -1
3 2 2 1 1 1 0 0 0 0 0 0 0 0 -0 -0 0 0 0 0 -0 0 1 0 1 0 -0 1 -0 -0 0 2 1 0 2 4 5 3 1 1 0 0 -0
2 2 2 2 1 1 0 0 1 1 0 -0 1 1 1 2 1 0 0 0 0 0 1 1 1 1 0 0 -0 0 0 1 2 1 0 1 2 5 5 2 1 0 1
3 3 2 2 1 0 0 0 1 1 1 0 1 1 1 1 1 1 1 1 1 1 1 1 1 1 0 0 -0 0 0 0 1 2 3 2 1 1 4 6 3 2 1
3 2 2 2 1 0 0 0 0 1 0 0 1 1 2 2 2 2 2 2 2 2 1 1 1 1 1 1 1 2 3 3 3 4 5 6 7 7 8 8 7 7 3
3 3 2 2 2 1 1 0 1 1 1 1 1 1 2 2 2 2 2 2 3 3 2 2 1 1 1 2 2 2 3 3 5 5 5 5 6 7 7 8 8 7 5
3 3 2 2 2 1 1 1 1 1 1 1 1 1 1 2 2 2 2 3 3 2 2 1 1 1 1 2 2 2 2 3 3 4 4 4 3 3 4 5 6 7 6
3 3 2 2 1 1 1 1 1 1 1 1 0 1 1 2 2 2 3 3 3 3 1 1 1 1 2 2 3 3 3 2 2 2 1 2 2 2 2 3 4 6 8
3 3 2 2 2 2 1 1 1 1 2 2 2 2 2 2 3 3 4 3 3 2 2 1 1 2 2 2 2 2 1 1 1 1 1 1 1 1 1 2 3 4 6
3 3 3 3 2 2 2 2 2 2 2 2 2 3 3 3 3 4 4 4 3 2 2 2 2 1 2 1 1 1 1 1 1 1 1 1 1 2 2 2 3 3 3
3 4 4 3 3 3 3 3 3 3 3 3 3 3 3 3 3 4 3 2 3 2 1 1 1 1 1 1 1 2 2 2 2 2 2 2 3 3 3 3 4 3 3
4 4 3 3 4 3 3 4 3 4 4 4 4 3 3 3 3 3 2 2 1 1 1 0 0 1 1 2 2 3 3 3 3 3 3 3 3 4 4 4 4 4 5
5 4 4 4 4 4 4 4 4 4 4 3 3 3 3 4 3 2 2 2 1 1 1 1 2 2 2 3 3 3 3 3 3 3 3 4 4 4 4 5 5 5 5
5 4 5 4 5 5 4 4 4 4 4 4 3 3 3 3 3 2 2 2 1 2 2 2 2 3 3 3 3 4 4 4 4 4 4 3 3 4 5 6 6 6 7
5 5 6 5 6 5 4 4 4 4 3 3 3 3 3 3 2 2 2 2 2 2 2 3 3 3 3 6 6 6 5 5 5 5 4 3 3 4 4 5 5 6 8
6 7 6 6 5 4 4 4 4 3 3 3 3 3 3 3 3 2 3 3 3 3 3 3 3 3 3 6 6 6 5 5 4 4 4 4 4 4 4 5 6 6 6
6 5 6 5 4 4 3 3 3 3 3 3 3 2 2 3 3 3 3 3 3 3 3 3 3 3 3 5 5 5 4 4 3 3 3 4 4 4 5 6 6 6 6
5 5 5 5 4 3 3 3 3 3 3 2 2 2 2 2 2 3 3 3 3 3 3 3 3 4 3 4 5 5 4 4 4 4 3 4 4 4 5 6 7 7 7
5 5 5 5 4 4 3 3 3 2 2 2 2 2 2 2 2 3 3 3 3 3 3 4 4 4 4 3 4 4 5 6 5 4 4 4 4 4 5 6 7 8 8
5 5 4 4 4 3 2 3 2 2 1 1 1 1 1 2 2 2 3 3 3 3 3 4 3 3 3 4 4 5 5 6 5 5 5 4 5 6 6 7 8 8 8
5 4 4 4 3 3 3 3 3 1 0 0 1 1 1 1 2 3 3 3 3 4 4 4 4 4 3 4 5 6 6 5 6 6 4 4 5 6 7 8 8 9 9
5 4 4 4 4 3 3 3 2 1 1 1 1 1 1 2 2 3 3 4 4 4 5 6 5 6 5 5 5 6 6 6 6 5 5 6 6 7 8 8 9 9 9
6 5 5 5 4 3 3 2 2 2 2 3 2 1 2 2 2 3 3 4 4 6 6 6 7 6 6 6 6 6 6 7 7 7 7 6 7 7 7 8 8 8 8
5 5 5 4 4 3 3 2 2 2 3 3 3 2 3 3 3 3 4 4 4 6 6 6 7 8 8 8 8 8 8 8 8 9 7 8 9 10 9 9 9 9 9
5 5 4 3 3 2 2 3 2 2 3 4 3 3 3 3 4 5 5 6 6 7 7 8 8 7 8 8 8 8 9 9 9 9 9 10 10 10 10 11 10 10 10